Temperature
18 19 19 19 19 18 18 18 18 18 18 18 18 18 18 18 18 18 18 18 18 18 18 18 18 17 18 18 18 18 18 18 18 18 18 18 18 18 18 18 18 18 18
18 19 19 19 18 18 18 18 18 18 18 18 18 18 18 18 17 17 17 17 17 17 18 18 18 18 18 18 18 18 18 18 18 17 17 18 18 18 18 18 18 18 18
18 18 18 18 18 18 18 18 18 18 18 18 18 18 18 17 17 17 17 17 17 17 17 17 17 17 17 17 18 18 18 18 17 17 17 17 17 17 18 17 17 17 17
18 18 18 18 18 18 18 18 18 18 18 18 18 18 18 17 17 17 17 17 17 17 17 17 17 17 17 17 17 17 17 17 17 17 17 17 17 17 17 17 17 17 17
18 18 18 18 18 18 18 18 18 18 18 18 18 17 17 17 17 17 17 17 17 17 17 17 17 17 17 17 17 17 17 17 17 17 17 17 17 17 17 17 17 17 17
18 18 18 18 18 18 18 18 18 18 18 18 17 17 17 17 17 17 17 17 17 17 17 17 17 17 17 17 17 17 17 17 17 17 17 17 17 17 17 17 17 17 17
18 18 18 18 18 18 18 18 18 18 18 18 17 17 17 17 17 17 17 17 17 17 17 17 17 17 17 17 17 17 17 17 17 17 17 17 17 17 17 17 17 17 17
18 18 18 18 18 18 18 18 18 18 18 18 18 17 17 17 17 17 17 17 17 17 17 17 17 17 17 17 17 17 17 17 16 16 16 16 16 17 17 17 17 17 16
18 18 18 18 18 18 18 18 18 18 18 18 17 17 17 17 17 17 17 17 17 17 17 17 17 17 17 17 17 17 17 16 16 16 16 16 16 16 16 16 16 16 16
18 18 18 18 18 18 18 18 18 18 17 17 17 17 17 17 17 17 17 17 17 17 17 17 17 17 17 17 16 16 16 16 16 16 16 16 16 16 16 16 16 16 16
19 19 18 18 18 18 18 18 18 18 17 17 17 17 17 17 17 17 17 17 17 17 17 16 16 16 16 16 16 16 16 16 16 16 16 16 16 16 16 16 16 16 16
19 19 19 18 18 18 18 18 17 17 17 17 17 17 17 17 17 17 17 17 16 16 16 16 16 16 16 16 16 16 16 16 16 16 16 16 16 16 16 16 16 16 16
19 19 19 19 18 18 18 18 17 17 17 17 17 17 17 17 17 17 17 16 16 16 16 16 16 16 16 16 16 16 16 16 16 16 16 16 16 16 16 16 16 16 15
19 19 19 19 18 18 18 18 18 18 18 17 17 17 17 17 17 17 16 16 16 16 16 16 16 16 16 16 16 16 16 16 16 16 16 16 16 16 15 15 15 15 15
19 19 19 19 18 18 18 18 18 18 18 17 17 17 17 17 17 17 16 16 16 16 16 16 16 16 16 16 16 16 15 15 15 15 15 15 15 15 15 15 15 15 15
19 19 19 18 18 18 18 18 18 17 17 17 17 17 17 17 17 17 16 16 16 16 16 16 16 16 16 16 15 15 15 15 15 15 15 15 15 15 15 15 15 15 15
19 19 19 18 18 18 18 18 17 17 17 17 17 17 17 17 17 16 16 16 16 16 16 16 16 16 15 15 15 15 15 15 15 15 15 15 15 15 15 15 15 15 15
19 19 18 18 18 18 18 18 17 17 17 17 17 17 17 17 16 16 16 16 16 16 16 15 15 15 15 15 15 15 15 15 15 15 15 15 15 15 15 15 15 15 15
19 19 18 18 18 18 18 17 17 17 17 17 17 16 16 16 16 16 16 16 15 15 15 15 15 15 15 15 15 15 15 15 15 14 14 14 14 14 14 14 14 14 14
19 19 18 18 18 18 17 17 17 17 16 16 16 16 16 16 16 16 15 15 15 15 15 15 15 15 15 15 15 15 15 15 15 14 14 14 14 14 14 14 14 14 14
19 18 18 18 18 17 17 17 17 16 16 16 16 16 16 16 15 15 15 15 15 15 15 15 15 15 14 14 15 15 15 15 15 14 14 14 14 14 14 14 14 14 14
19 18 18 18 17 17 17 17 16 16 16 16 16 16 16 16 15 15 15 15 15 15 14 14 14 14 14 14 14 14 14 14 14 14 14 14 14 14 13 13 13 13 13
18 18 18 17 17 17 17 17 16 16 16 16 16 16 15 15 15 15 15 15 15 14 14 14 14 14 14 14 14 14 14 14 14 14 14 13 13 13 13 13 13 13 13
18 18 18 17 17 17 17 16 16 16 16 16 16 15 15 15 15 15 14 14 14 14 14 14 14 14 14 14 14 14 14 14 13 13 13 13 13 13 13 13 13 13 13
18 18 17 17 17 17 16 16 16 16 16 15 15 15 15 15 15 15 14 14 14 14 14 14 14 14 14 14 14 14 14 14 14 13 13 13 13 13 13 13 13 12 12
17 17 17 17 17 16 16 16 16 15 15 15 15 15 15 15 14 14 14 14 14 14 14 14 14 14 14 14 13 13 13 13 13 13 13 12 12 12 12 12 12 12 12
Wind_Speed
8 11 11 11 10 10 10 10 10 9 10 10 10 10 11 11 11 11 12 11 11 12 12 12 11 11 11 11 10 10 9 8 8 7 8 8 8 8 7 7 7 8 9
11 13 12 11 11 10 11 10 10 10 10 10 10 10 10 11 11 11 11 11 11 12 11 11 11 12 11 11 10 10 8 7 5 5 5 7 8 8 8 9 10 9 9
12 13 12 10 10 10 10 10 9 9 9 9 10 10 10 10 10 11 11 11 11 11 11 11 11 11 11 10 9 8 7 5 4 3 2 4 7 8 8 9 9 9 9
11 12 11 10 10 10 9 9 9 9 9 9 9 10 10 10 10 10 11 11 11 11 11 11 11 11 10 10 9 8 6 5 4 3 3 6 7 8 8 8 8 8 8
10 13 12 10 9 9 9 8 8 8 9 9 9 10 10 9 10 10 11 11 10 10 11 11 10 10 10 9 8 7 6 6 6 6 8 10 10 8 8 7 7 7 7
11 13 12 10 9 9 8 8 8 8 8 9 9 9 9 9 9 9 9 10 9 9 10 10 10 9 9 8 8 7 6 6 7 7 8 10 9 8 8 7 7 7 7
10 11 12 10 9 8 8 8 8 8 8 8 8 8 8 8 9 9 9 9 9 9 8 9 9 9 8 8 7 7 7 6 5 5 8 10 9 9 8 8 7 7 7
9 11 12 10 9 8 8 8 8 8 8 7 7 7 7 7 7 8 8 8 8 8 8 8 8 7 7 7 7 7 8 7 7 7 8 10 9 9 8 7 7 7 7
8 8 10 10 9 8 8 8 7 7 6 6 6 6 6 6 6 7 7 7 7 7 7 7 7 6 6 5 6 6 7 7 6 6 8 8 9 8 8 8 8 8 8
6 5 6 8 9 9 8 8 7 6 6 5 5 5 5 6 7 8 8 7 7 7 6 5 5 5 4 3 3 4 5 5 5 7 8 8 9 8 8 8 8 9 9
5 4 5 5 6 8 8 8 8 7 6 5 5 6 5 5 7 7 8 8 7 6 4 3 3 3 2 0 1 3 4 3 6 7 9 9 10 9 9 9 8 8 9
5 4 4 4 4 6 6 7 6 6 6 5 4 5 4 4 6 8 9 7 6 4 3 3 3 2 2 1 0 0 2 4 6 7 9 10 10 10 9 9 8 8 8
5 4 4 3 4 5 4 5 3 3 3 3 3 4 4 5 5 7 5 5 4 3 1 1 1 1 2 3 3 3 4 5 6 8 9 11 11 10 10 9 8 8 8
5 5 4 4 4 4 4 3 3 2 2 2 2 4 4 3 3 3 2 3 3 2 2 2 2 4 5 5 5 5 6 5 6 8 9 11 10 10 10 9 9 8 8
5 5 5 4 4 4 4 2 3 3 3 4 4 4 5 3 3 3 2 3 3 3 3 3 3 4 5 6 6 6 5 5 7 8 8 10 10 10 10 10 9 9 9
5 6 5 4 4 4 3 3 3 3 3 3 3 4 5 4 3 2 3 3 3 4 4 4 3 4 4 4 5 5 5 5 7 8 8 9 10 10 10 9 9 8 8
5 5 5 4 3 3 3 3 3 3 4 3 3 4 5 5 4 4 3 3 3 5 6 5 4 4 3 3 3 4 4 5 5 7 8 8 9 9 10 9 8 8 8
5 5 4 4 4 3 3 3 3 3 4 3 4 5 5 5 6 5 2 2 4 5 4 2 3 3 3 3 3 3 3 3 4 5 6 7 7 7 8 8 8 7 7
4 5 5 3 4 3 3 3 3 4 4 4 4 4 5 5 6 5 2 3 5 3 2 3 3 2 2 2 2 3 2 2 2 4 4 6 6 7 7 7 8 8 7
4 5 5 4 5 4 3 3 3 3 2 3 3 4 5 5 5 4 3 3 4 3 3 3 3 2 2 2 3 3 2 2 2 3 3 4 6 6 6 7 6 6 7
4 5 4 4 4 3 2 2 2 2 2 1 2 3 3 4 5 4 3 3 2 2 2 3 2 2 2 2 2 2 2 3 3 2 3 3 4 5 6 6 5 5 6
3 4 4 4 4 4 2 1 2 2 1 1 2 2 2 3 4 3 3 2 2 2 3 3 2 2 1 1 1 1 1 2 3 2 2 2 3 4 4 6 6 6 6
4 3 3 3 4 4 3 2 2 2 1 1 1 1 1 3 3 3 3 2 2 2 2 1 1 2 1 2 2 1 1 1 1 1 2 3 2 2 3 4 5 6 7
3 2 2 3 2 3 3 3 2 1 1 1 2 1 1 2 2 3 3 2 1 1 2 1 1 1 0 1 1 1 1 1 1 0 1 2 2 2 2 3 4 6 8
3 2 1 2 2 2 2 3 2 1 1 1 2 2 1 0 1 2 3 2 1 1 1 1 1 1 0 0 1 1 1 0 0 1 0 1 1 1 1 3 4 5 7
3 2 1 2 2 1 1 3 2 2 1 2 1 2 1 1 1 1 2 1 1 0 0 1 1 0 0 0 0 0 0 0 0 1 1 0 0 1 1 3 3 4 5
Wind_Direction
96 94 88 78 74 73 73 72 71 69 67 68 67 69 70 69 69 71 73 71 70 69 69 67 68 72 73 72 71 69 68 68 72 75 81 86 82 77 75 73 81 85 90
103 99 91 81 76 74 73 70 69 70 70 68 67 69 71 71 72 74 76 73 71 70 69 69 70 70 70 69 68 67 68 68 68 72 88 93 88 79 73 71 77 87 91
102 104 97 86 79 76 76 72 69 70 71 70 69 71 73 73 75 76 75 73 71 70 69 70 70 70 69 68 66 65 63 59 50 50 77 112 99 84 81 80 82 87 90
103 104 98 93 83 78 76 73 69 71 73 73 73 75 77 80 78 76 75 73 70 69 68 67 68 69 67 65 61 56 47 28 14 2 69 96 89 87 86 85 85 87 92
96 99 100 98 90 83 77 73 71 75 76 77 78 80 81 85 82 81 79 75 72 69 69 70 68 67 65 60 52 43 30 14 14 32 65 79 81 83 83 83 85 87 91
99 102 105 102 95 88 81 76 78 79 80 81 85 85 85 86 84 83 81 77 76 72 70 70 68 66 62 54 45 34 19 17 19 56 68 82 86 87 85 82 83 88 91
102 106 111 109 103 97 90 83 81 84 86 86 90 90 89 88 88 88 84 80 78 76 73 71 69 67 59 49 40 31 22 24 35 64 73 76 81 85 84 83 82 89 93
109 112 119 123 117 112 104 98 93 92 93 93 95 98 99 97 94 93 91 86 83 78 76 77 77 72 61 50 41 36 31 29 41 55 77 78 78 79 80 80 80 86 89
110 121 133 138 133 127 120 115 111 108 106 105 107 114 119 116 109 103 98 95 90 85 86 86 84 80 70 56 39 32 28 23 30 39 69 76 78 78 78 75 76 83 84
111 118 130 141 141 140 136 130 128 127 125 131 139 144 143 134 125 115 109 106 100 97 98 99 100 97 90 62 21 11 14 18 48 51 65 73 77 77 76 77 80 81 83
105 106 112 125 125 135 139 136 142 140 142 154 171 177 169 152 132 124 116 122 116 114 117 124 140 140 153 197 344 0 10 53 73 68 67 78 78 78 80 81 83 85 82
112 106 99 112 122 121 120 136 151 148 158 175 176 171 167 127 113 118 128 134 134 135 145 182 202 206 231 237 226 33 41 65 75 74 74 80 81 81 80 81 83 86 85
113 101 90 86 94 101 104 117 129 128 146 158 133 118 114 114 116 122 132 137 141 153 167 175 209 101 66 65 71 84 70 69 72 77 80 83 82 81 79 78 84 88 90
113 108 94 82 89 91 93 104 108 105 94 80 80 108 94 87 95 94 97 117 114 95 67 61 62 57 56 53 56 67 62 69 79 89 89 89 84 81 81 83 84 85 90
114 103 91 86 82 87 90 90 89 81 77 69 41 68 87 81 87 86 81 72 72 67 67 47 47 57 57 43 40 51 59 64 74 88 95 95 88 83 81 83 82 82 83
118 109 103 97 89 89 96 96 83 78 75 73 56 60 79 83 82 83 80 62 61 53 52 50 52 63 65 59 43 44 43 53 71 86 98 99 94 87 81 80 82 83 79
122 115 117 119 106 102 94 91 83 73 68 56 45 57 63 73 81 78 73 60 50 54 49 42 41 54 63 62 56 55 50 44 61 79 91 98 96 89 83 77 78 81 76
122 118 116 118 112 102 94 88 82 72 67 60 48 44 50 64 76 73 77 75 64 62 57 48 43 42 52 52 50 49 53 52 57 72 88 95 97 94 91 84 79 79 74
124 127 125 123 117 105 98 95 83 78 71 63 55 44 42 51 72 74 68 64 67 59 50 45 44 42 50 51 70 73 62 64 58 67 79 85 91 97 99 96 89 80 70
130 122 118 113 108 101 95 93 83 76 78 68 61 49 44 50 70 77 81 73 65 62 50 49 44 29 51 45 50 65 77 92 70 57 66 74 75 82 94 101 101 83 70
124 117 118 114 111 110 100 101 108 106 97 90 87 65 52 55 65 68 66 73 71 75 68 63 59 32 25 54 58 41 37 61 70 78 64 69 71 67 71 82 90 89 83
119 116 125 127 126 129 124 122 137 130 126 107 79 74 56 59 72 82 86 86 75 73 69 69 72 50 354 10 57 84 53 18 5 52 76 72 64 68 67 68 65 76 78
128 131 136 136 142 136 124 101 90 90 112 114 104 94 63 69 74 70 75 84 110 103 97 99 107 87 356 326 18 55 98 150 321 7 59 67 67 63 58 60 60 62 72
115 115 123 130 128 124 128 125 134 158 178 173 144 127 101 73 85 84 76 76 83 109 122 176 123 116 117 306 328 343 43 111 134 355 343 38 65 70 70 58 66 60 67
112 102 102 121 116 119 140 144 142 142 156 110 108 121 126 135 79 96 90 72 60 68 190 146 95 107 116 59 337 326 337 356 106 131 187 346 11 27 67 74 70 68 64
117 113 88 94 95 125 148 140 147 161 151 130 138 156 173 153 157 146 117 110 97 111 344 81 80 108 36 300 329 320 33 324 276 122 171 193 18 314 69 85 80 79 75
Height
1516 1515 1515 1514 1514 1514 1514 1514 1514 1515 1515 1515 1516 1516 1516 1516 1517 1517 1517 1517 1517 1518 1518 1518 1519 1519 1519 1520 1520 1520 1521 1521 1522 1522 1523 1523 1524 1525 1525 1525 1526 1526 1527
1516 1516 1516 1515 1515 1515 1515 1515 1516 1516 1516 1517 1517 1517 1517 1518 1518 1518 1518 1519 1519 1519 1519 1520 1520 1520 1521 1521 1521 1522 1522 1522 1523 1523 1524 1524 1525 1525 1526 1526 1526 1527 1527
1517 1517 1516 1517 1516 1516 1516 1517 1517 1517 1518 1518 1518 1519 1519 1519 1519 1519 1519 1520 1520 1520 1520 1521 1521 1522 1522 1522 1523 1523 1523 1524 1524 1525 1525 1525 1526 1526 1526 1527 1527 1527 1528
1518 1518 1518 1518 1518 1518 1518 1518 1518 1518 1519 1519 1519 1520 1520 1520 1520 1521 1521 1521 1521 1522 1522 1522 1522 1522 1523 1523 1524 1524 1524 1525 1525 1525 1526 1526 1526 1526 1527 1527 1527 1528 1528
1519 1519 1519 1519 1519 1519 1519 1519 1519 1520 1520 1520 1520 1521 1521 1521 1521 1522 1522 1522 1523 1523 1523 1523 1523 1523 1524 1524 1524 1525 1525 1526 1526 1526 1526 1526 1526 1527 1527 1527 1528 1528 1529
1520 1520 1520 1520 1520 1520 1520 1520 1521 1521 1521 1521 1522 1522 1522 1522 1523 1523 1523 1524 1524 1524 1524 1524 1524 1525 1525 1525 1525 1525 1526 1526 1526 1527 1527 1527 1527 1527 1527 1527 1528 1528 1529
1521 1521 1521 1521 1521 1522 1522 1522 1522 1522 1522 1523 1523 1523 1523 1524 1524 1524 1524 1525 1525 1525 1525 1525 1526 1526 1526 1526 1526 1526 1526 1527 1527 1528 1528 1527 1527 1527 1527 1527 1528 1528 1529
1522 1522 1522 1523 1523 1523 1523 1523 1523 1523 1524 1524 1524 1524 1524 1525 1525 1525 1525 1526 1526 1526 1526 1526 1526 1527 1527 1527 1527 1527 1527 1527 1527 1528 1528 1528 1528 1528 1528 1528 1528 1529 1529
1524 1523 1523 1524 1524 1524 1524 1524 1525 1525 1525 1525 1525 1525 1525 1526 1526 1526 1526 1527 1527 1527 1527 1527 1528 1528 1528 1528 1528 1528 1528 1528 1528 1529 1529 1528 1528 1528 1528 1528 1528 1528 1529
1525 1525 1525 1525 1525 1525 1525 1525 1526 1526 1526 1526 1526 1526 1527 1527 1527 1528 1528 1528 1528 1528 1529 1529 1529 1529 1529 1529 1529 1529 1529 1529 1529 1529 1529 1529 1529 1528 1528 1528 1528 1528 1529
1526 1526 1526 1526 1526 1526 1526 1526 1527 1527 1527 1527 1527 1528 1528 1528 1529 1529 1529 1530 1530 1530 1530 1530 1530 1530 1530 1530 1530 1530 1530 1529 1529 1529 1529 1529 1529 1529 1528 1528 1528 1529 1529
1527 1527 1527 1527 1527 1528 1528 1528 1528 1528 1528 1528 1529 1529 1530 1530 1530 1530 1531 1531 1531 1531 1531 1531 1532 1531 1531 1531 1531 1531 1531 1530 1530 1530 1530 1530 1529 1529 1529 1529 1529 1529 1529
1527 1528 1528 1528 1529 1529 1529 1529 1529 1530 1530 1530 1531 1531 1531 1531 1531 1531 1531 1532 1532 1532 1532 1532 1532 1532 1532 1532 1532 1531 1531 1531 1531 1530 1530 1530 1530 1530 1529 1529 1529 1529 1529
1527 1528 1529 1529 1529 1529 1529 1530 1530 1531 1531 1531 1532 1532 1532 1532 1533 1532 1533 1533 1533 1533 1533 1533 1533 1533 1533 1533 1532 1532 1532 1532 1531 1531 1531 1531 1531 1530 1530 1530 1529 1529 1529
1527 1528 1529 1529 1530 1530 1530 1531 1531 1531 1532 1532 1532 1533 1533 1533 1533 1533 1533 1534 1534 1534 1534 1534 1534 1534 1533 1533 1533 1533 1533 1532 1532 1532 1531 1531 1531 1531 1531 1530 1530 1530 1530
1527 1528 1529 1529 1530 1530 1531 1531 1531 1532 1532 1532 1533 1533 1533 1533 1533 1534 1534 1534 1534 1534 1534 1534 1534 1534 1534 1533 1533 1533 1533 1533 1533 1533 1532 1532 1532 1532 1532 1531 1531 1531 1531
1527 1528 1529 1530 1530 1531 1531 1531 1532 1532 1533 1533 1533 1534 1534 1534 1534 1534 1534 1534 1534 1534 1535 1534 1534 1534 1534 1534 1534 1534 1534 1534 1534 1533 1533 1533 1533 1533 1532 1532 1532 1532 1532
1527 1528 1529 1530 1530 1531 1531 1531 1532 1533 1533 1533 1534 1534 1534 1534 1534 1534 1534 1534 1534 1534 1534 1534 1534 1534 1534 1534 1534 1534 1534 1534 1534 1534 1534 1534 1534 1534 1534 1533 1533 1533 1532
1526 1527 1529 1530 1530 1531 1531 1531 1532 1532 1533 1533 1534 1533 1534 1534 1534 1534 1534 1534 1534 1534 1534 1534 1534 1534 1534 1534 1534 1534 1534 1534 1535 1535 1535 1535 1535 1535 1534 1534 1534 1533 1533
1526 1527 1528 1529 1530 1530 1531 1531 1532 1532 1533 1533 1533 1533 1533 1534 1534 1534 1534 1534 1534 1534 1534 1534 1534 1534 1534 1534 1534 1534 1535 1535 1535 1535 1536 1536 1536 1535 1535 1535 1534 1534 1533
1525 1526 1527 1528 1529 1529 1530 1531 1531 1531 1532 1532 1533 1533 1533 1533 1533 1534 1534 1534 1534 1534 1534 1533 1533 1533 1534 1534 1534 1534 1535 1536 1536 1536 1536 1536 1536 1536 1535 1535 1535 1534 1533
1524 1526 1527 1528 1528 1529 1529 1530 1531 1531 1531 1532 1532 1532 1533 1533 1533 1533 1533 1533 1533 1533 1533 1533 1533 1533 1534 1534 1534 1534 1535 1537 1536 1536 1536 1536 1536 1536 1536 1535 1535 1534 1533
1523 1524 1525 1527 1527 1528 1528 1529 1530 1530 1530 1530 1531 1531 1532 1532 1532 1532 1533 1533 1533 1533 1533 1533 1533 1533 1534 1534 1534 1535 1535 1536 1536 1537 1536 1536 1536 1536 1536 1535 1535 1534 1534
1522 1523 1524 1525 1526 1527 1527 1527 1528 1528 1529 1529 1530 1530 1531 1531 1531 1532 1532 1532 1532 1532 1532 1533 1533 1533 1533 1534 1534 1534 1535 1535 1536 1536 1537 1536 1536 1535 1535 1535 1535 1534 1533
1520 1522 1523 1524 1525 1525 1526 1526 1526 1527 1527 1528 1528 1529 1529 1530 1530 1530 1531 1531 1531 1531 1532 1532 1532 1532 1533 1533 1533 1534 1534 1535 1535 1535 1535 1535 1535 1535 1535 1534 1534 1534 1533
1519 1521 1522 1522 1523 1523 1524 1524 1524 1525 1525 1526 1526 1527 1528 1528 1529 1529 1529 1529 1530 1530 1530 1531 1531 1531 1532 1532 1533 1533 1533 1533 1533 1534 1533 1533 1534 1534 1534 1534 1533 1533 1533